Station Historical Data
Daily Summary for February 26, 2017 Units:  Metric    English   Both
« Previous Day
Next Day »
Daily Weekly Monthly Yearly Custom
  High: Low: Average:
Temperature: 2.2 °C -2.8 °C -0.9 °C
Dew Point: -3.8 °C -9.3 °C -6.6 °C
Humidity: 79% 49% 66%
Wind Speed: 27.4km/h 1.6km/h 11.7km/h
Wind Gust: 41.8km/h - -
Wind- - WSW
Pressure: 1019.9 hPa 1010.4 hPa -
Precipitation: 0 mm    
Historical Graphs
 
 
Tabular Data for February 26, 2017
Time Temperature Dew Point Pressure Wind Wind Speed Wind Gust Humidity Rainfall Rate (Hourly)
00:04 -1.8 °C -5.7 °C 1010.4 hPa West 8 km/h 20.9 km/h 75% 0 mm
00:09 -1.9 °C -5.7 °C 1010.7 hPa West 9.7 km/h 20.9 km/h 75% 0 mm
00:14 -1.8 °C -5.8 °C 1010.7 hPa West 11.3 km/h 20.9 km/h 74% 0 mm
00:19 -1.9 °C -6.1 °C 1010.7 hPa West 11.3 km/h 20.9 km/h 73% 0 mm
00:24 -1.9 °C -6.3 °C 1010.7 hPa West 11.3 km/h 25.7 km/h 72% 0 mm
00:29 -1.9 °C -6.4 °C 1011.1 hPa West 12.9 km/h 30.6 km/h 71% 0 mm
00:34 -1.9 °C -6.4 °C 1011.1 hPa West 12.9 km/h 30.6 km/h 71% 0 mm
00:39 -1.9 °C -6.5 °C 1011.1 hPa WSW 16.1 km/h 20.9 km/h 71% 0 mm
00:44 -1.9 °C -6.7 °C 1011.1 hPa SW 17.7 km/h 22.5 km/h 70% 0 mm
00:49 -2 °C -6.7 °C 1011.4 hPa West 14.5 km/h 37 km/h 70% 0 mm
00:54 -2.1 °C -6.6 °C 1011.4 hPa West 14.5 km/h 37 km/h 71% 0 mm
00:59 -2.1 °C -6.6 °C 1011.4 hPa West 16.1 km/h 30.6 km/h 71% 0 mm
01:05 -2.1 °C -6.7 °C 1011.4 hPa West 14.5 km/h 30.6 km/h 71% 0 mm
01:10 -2.1 °C -6.8 °C 1011.4 hPa WNW 6.4 km/h 25.7 km/h 70% 0 mm
01:15 -2.1 °C -6.8 °C 1011.7 hPa West 9.7 km/h 24.1 km/h 70% 0 mm
01:20 -2.1 °C -6.8 °C 1011.7 hPa WSW 12.9 km/h 20.9 km/h 70% 0 mm
01:25 -2.2 °C -6.7 °C 1011.7 hPa West 14.5 km/h 29 km/h 71% 0 mm
01:30 -2.3 °C -6.4 °C 1011.7 hPa West 9.7 km/h 24.1 km/h 73% 0 mm
01:35 -2.4 °C -6.4 °C 1011.7 hPa NW 16.1 km/h 16.1 km/h 74% 0 mm
01:40 -2.4 °C -6.4 °C 1011.7 hPa NW 6.4 km/h 25.7 km/h 74% 0 mm
01:45 -2.4 °C -6.3 °C 1011.7 hPa WSW 12.9 km/h 25.7 km/h 75% 0 mm
01:50 -2.5 °C -6.3 °C 1011.7 hPa West 11.3 km/h 24.1 km/h 75% 0 mm
01:55 -2.5 °C -6.3 °C 1011.7 hPa West 11.3 km/h 24.1 km/h 75% 0 mm
02:00 -2.5 °C -6.5 °C 1012.1 hPa West 12.9 km/h 25.7 km/h 74% 0 mm
02:05 -2.4 °C -6.4 °C 1012.1 hPa West 12.9 km/h 32.2 km/h 74% 0 mm
02:10 -2.5 °C -6.5 °C 1012.1 hPa SW 16.1 km/h 25.7 km/h 74% 0 mm
02:15 -2.5 °C -6.5 °C 1012.1 hPa WSW 1.6 km/h 24.1 km/h 74% 0 mm
02:20 -2.4 °C -6.6 °C 1012.1 hPa SW 9.7 km/h 22.5 km/h 73% 0 mm
02:25 -2.4 °C -7.1 °C 1012.1 hPa WSW 14.5 km/h 29 km/h 70% 0 mm
02:30 -2.3 °C -7.1 °C 1012.1 hPa West 16.1 km/h 20.9 km/h 70% 0 mm
02:35 -2.3 °C -7 °C 1012.4 hPa SSW 6.4 km/h 25.7 km/h 70% 0 mm
02:40 -2.2 °C -6.9 °C 1012.4 hPa SW 12.9 km/h 20.9 km/h 70% 0 mm
02:45 -2.2 °C -6.9 °C 1012.4 hPa WSW 11.3 km/h 25.7 km/h 70% 0 mm
02:50 -2.3 °C -7 °C 1012.4 hPa WSW 12.9 km/h 25.7 km/h 70% 0 mm
02:55 -2.3 °C -7.2 °C 1012.4 hPa West 12.9 km/h 22.5 km/h 69% 0 mm
03:00 -2.3 °C -7.1 °C 1012.8 hPa West 12.9 km/h 29 km/h 70% 0 mm
03:05 -2.3 °C -7.1 °C 1012.8 hPa West 14.5 km/h 29 km/h 70% 0 mm
03:10 -2.4 °C -7.2 °C 1012.8 hPa West 14.5 km/h 27.4 km/h 70% 0 mm
03:15 -2.6 °C -7.3 °C 1012.8 hPa WNW 11.3 km/h 19.3 km/h 70% 0 mm
03:20 -2.6 °C -7.3 °C 1012.8 hPa West 11.3 km/h 19.3 km/h 70% 0 mm
03:25 -2.6 °C -7.1 °C 1012.8 hPa West 11.3 km/h 20.9 km/h 71% 0 mm
03:30 -2.5 °C -7.1 °C 1012.8 hPa WNW 8 km/h 16.1 km/h 71% 0 mm
03:35 -2.5 °C -7.2 °C 1013.1 hPa West 9.7 km/h 22.5 km/h 70% 0 mm
03:40 -2.6 °C -7.3 °C 1013.1 hPa West 11.3 km/h 27.4 km/h 70% 0 mm
03:45 -2.6 °C -7.3 °C 1013.1 hPa SW 14.5 km/h 19.3 km/h 70% 0 mm
03:50 -2.6 °C -7.3 °C 1013.1 hPa West 12.9 km/h 29 km/h 70% 0 mm
03:55 -2.6 °C -7.3 °C 1013.1 hPa West 14.5 km/h 29 km/h 70% 0 mm
04:00 -2.6 °C -7.4 °C 1013.1 hPa West 12.9 km/h 35.4 km/h 69% 0 mm
04:05 -2.6 °C -7.4 °C 1013.1 hPa WSW 14.5 km/h 24.1 km/h 69% 0 mm
04:10 -2.6 °C -7.4 °C 1013.1 hPa SW 11.3 km/h 27.4 km/h 69% 0 mm
04:15 -2.5 °C -7.4 °C 1013.4 hPa West 17.7 km/h 29 km/h 69% 0 mm
04:20 -2.4 °C -7.3 °C 1013.4 hPa West 12.9 km/h 29 km/h 69% 0 mm
04:25 -2.4 °C -7.3 °C 1013.4 hPa West 11.3 km/h 22.5 km/h 69% 0 mm
04:30 -2.3 °C -7.4 °C 1013.8 hPa WSW 12.9 km/h 20.9 km/h 68% 0 mm
04:35 -2.3 °C -7.4 °C 1013.8 hPa West 14.5 km/h 25.7 km/h 68% 0 mm
04:39 -2.4 °C -7.3 °C 1013.8 hPa NW 17.7 km/h 20.9 km/h 69% 0 mm
04:45 -2.4 °C -7.6 °C 1013.8 hPa WNW 9.7 km/h 25.7 km/h 68% 0 mm
04:50 -2.4 °C -7.6 °C 1014.1 hPa WSW 8 km/h 20.9 km/h 68% 0 mm
04:55 -2.4 °C -7.6 °C 1014.1 hPa West 9.7 km/h 22.5 km/h 68% 0 mm
05:00 -2.4 °C -7.6 °C 1014.1 hPa West 11.3 km/h 20.9 km/h 68% 0 mm
05:05 -2.4 °C -7.6 °C 1014.1 hPa SW 11.3 km/h 24.1 km/h 68% 0 mm
05:10 -2.5 °C -7.8 °C 1014.1 hPa WNW 6.4 km/h 20.9 km/h 67% 0 mm
05:15 -2.4 °C -7.6 °C 1014.1 hPa WSW 9.7 km/h 29 km/h 68% 0 mm
05:20 -2.4 °C -7.7 °C 1014.4 hPa WSW 16.1 km/h 29 km/h 67% 0 mm
05:24 -2.4 °C -7.7 °C 1014.4 hPa West 11.3 km/h 29 km/h 67% 0 mm
05:30 -2.4 °C -7.7 °C 1014.8 hPa West 11.3 km/h 24.1 km/h 67% 0 mm
05:35 -2.5 °C -7.6 °C 1014.8 hPa West 9.7 km/h 24.1 km/h 68% 0 mm
05:40 -2.5 °C -7.6 °C 1014.8 hPa West 12.9 km/h 29 km/h 68% 0 mm
05:44 -2.6 °C -7.4 °C 1015.1 hPa West 9.7 km/h 20.9 km/h 69% 0 mm
05:49 -2.6 °C -7.5 °C 1015.1 hPa WNW 6.4 km/h 16.1 km/h 69% 0 mm
05:55 -2.6 °C -7.3 °C 1015.1 hPa West 9.7 km/h 25.7 km/h 70% 0 mm
06:00 -2.6 °C -7.3 °C 1015.1 hPa West 8 km/h 24.1 km/h 70% 0 mm
06:05 -2.6 °C -7.3 °C 1015.1 hPa WSW 8 km/h 20.9 km/h 70% 0 mm
06:10 -2.6 °C -7.2 °C 1015.1 hPa WSW 4.8 km/h 17.7 km/h 71% 0 mm
06:15 -2.6 °C -7.2 °C 1015.5 hPa SSW 6.4 km/h 27.4 km/h 71% 0 mm
06:19 -2.6 °C -7.3 °C 1015.5 hPa West 9.7 km/h 27.4 km/h 70% 0 mm
06:25 -2.6 °C -7.2 °C 1015.5 hPa West 9.7 km/h 24.1 km/h 71% 0 mm
06:30 -2.6 °C -7.2 °C 1015.8 hPa West 9.7 km/h 24.1 km/h 71% 0 mm
06:35 -2.7 °C -7.2 °C 1015.8 hPa West 9.7 km/h 22.5 km/h 71% 0 mm
06:40 -2.7 °C -7.2 °C 1015.8 hPa West 9.7 km/h 19.3 km/h 71% 0 mm
06:44 -2.7 °C -7.2 °C 1015.8 hPa West 11.3 km/h 20.9 km/h 71% 0 mm
06:49 -2.7 °C -7.3 °C 1015.8 hPa West 11.3 km/h 20.9 km/h 71% 0 mm
06:54 -2.8 °C -7.1 °C 1015.8 hPa West 11.3 km/h 24.1 km/h 72% 0 mm
07:00 -2.8 °C -7.2 °C 1016.1 hPa West 16.1 km/h 19.3 km/h 72% 0 mm
07:05 -2.8 °C -7.2 °C 1016.1 hPa West 9.7 km/h 19.3 km/h 72% 0 mm
07:10 -2.8 °C -7.1 °C 1016.1 hPa West 9.7 km/h 17.7 km/h 72% 0 mm
07:15 -2.8 °C -6.9 °C 1016.1 hPa West 8 km/h 16.1 km/h 73% 0 mm
07:20 -2.8 °C -6.9 °C 1016.5 hPa WSW 8 km/h 25.7 km/h 73% 0 mm
07:24 -2.7 °C -6.9 °C 1016.5 hPa West 11.3 km/h 25.7 km/h 73% 0 mm
07:30 -2.8 °C -6.9 °C 1016.8 hPa West 11.3 km/h 24.1 km/h 73% 0 mm
07:35 -2.7 °C -6.9 °C 1016.8 hPa West 9.7 km/h 24.1 km/h 73% 0 mm
07:40 -2.8 °C -6.9 °C 1016.8 hPa West 9.7 km/h 20.9 km/h 73% 0 mm
07:45 -2.8 °C -6.8 °C 1016.8 hPa West 9.7 km/h 20.9 km/h 74% 0 mm
07:49 -2.7 °C -6.8 °C 1016.8 hPa WSW 3.2 km/h 16.1 km/h 73% 0 mm
07:54 -2.7 °C -6.7 °C 1017.2 hPa WNW 8 km/h 16.1 km/h 74% 0 mm
07:59 -2.6 °C -6.8 °C 1017.2 hPa West 8 km/h 19.3 km/h 73% 0 mm
08:04 -2.6 °C -6.9 °C 1017.5 hPa West 17.7 km/h 25.7 km/h 72% 0 mm
08:09 -2.6 °C -6.9 °C 1017.5 hPa West 16.1 km/h 17.7 km/h 72% 0 mm
08:14 -2.6 °C -6.9 °C 1017.5 hPa WSW 6.4 km/h 19.3 km/h 72% 0 mm
08:19 -2.5 °C -6.7 °C 1017.5 hPa WSW 6.4 km/h 16.1 km/h 73% 0 mm
08:24 -2.5 °C -6.8 °C 1017.8 hPa West 8 km/h 19.3 km/h 72% 0 mm
08:29 -2.4 °C -6.8 °C 1017.8 hPa West 9.7 km/h 20.9 km/h 72% 0 mm
08:35 -2.4 °C -6.9 °C 1017.8 hPa West 11.3 km/h 22.5 km/h 71% 0 mm
08:40 -2.3 °C -7.1 °C 1017.8 hPa West 4.8 km/h 16.1 km/h 70% 0 mm
08:45 -2.3 °C -6.8 °C 1017.8 hPa West 9.7 km/h 19.3 km/h 71% 0 mm
08:50 -2.2 °C -7.2 °C 1017.8 hPa West 16.1 km/h 22.5 km/h 69% 0 mm
08:54 -2.2 °C -6.9 °C 1018.2 hPa West 11.3 km/h 24.1 km/h 70% 0 mm
08:59 -2.1 °C -6.8 °C 1018.2 hPa West 12.9 km/h 24.1 km/h 70% 0 mm
09:04 -1.9 °C -6.7 °C 1018.2 hPa West 8 km/h 17.7 km/h 70% 0 mm
09:14 -1.9 °C -6.9 °C 1018.2 hPa West 16.1 km/h 22.5 km/h 69% 0 mm
09:19 -1.8 °C -6.8 °C 1018.2 hPa WNW 9.7 km/h 20.9 km/h 69% 0 mm
09:24 -1.7 °C -6.8 °C 1018.2 hPa West 16.1 km/h 22.5 km/h 68% 0 mm
09:29 -1.4 °C -6.3 °C 1018.2 hPa West 11.3 km/h 22.5 km/h 69% 0 mm
09:34 -1.3 °C -6.4 °C 1018.2 hPa WNW 11.3 km/h 20.9 km/h 68% 0 mm
09:39 -1.3 °C -6.4 °C 1018.2 hPa West 4.8 km/h 19.3 km/h 68% 0 mm
09:44 -1.2 °C -6.7 °C 1018.2 hPa WSW 8 km/h 19.3 km/h 66% 0 mm
09:50 -1.2 °C -7.3 °C 1018.5 hPa West 12.9 km/h 24.1 km/h 63% 0 mm
09:55 -1.1 °C -7.3 °C 1018.5 hPa WNW 9.7 km/h 24.1 km/h 63% 0 mm
09:59 -0.9 °C -7.1 °C 1018.5 hPa West 11.3 km/h 24.1 km/h 63% 0 mm
10:04 -0.9 °C -7.3 °C 1018.5 hPa West 12.9 km/h 22.5 km/h 62% 0 mm
10:10 -0.7 °C -7.1 °C 1018.5 hPa West 11.3 km/h 22.5 km/h 62% 0 mm
10:15 -0.5 °C -7.1 °C 1018.5 hPa West 11.3 km/h 20.9 km/h 61% 0 mm
10:19 -0.5 °C -7.3 °C 1018.5 hPa WNW 14.5 km/h 27.4 km/h 60% 0 mm
10:24 -0.4 °C -7.9 °C 1018.5 hPa West 8 km/h 20.9 km/h 57% 0 mm
10:29 -0.4 °C -8.2 °C 1018.5 hPa WSW 11.3 km/h 22.5 km/h 56% 0 mm
10:34 -0.4 °C -8.4 °C 1018.5 hPa SW 8 km/h 22.5 km/h 55% 0 mm
10:39 -0.3 °C -8.8 °C 1018.5 hPa West 19.3 km/h 22.5 km/h 53% 0 mm
10:44 -0.3 °C -8.7 °C 1018.5 hPa West 16.1 km/h 19.3 km/h 53% 0 mm
10:49 -0.1 °C -8.3 °C 1018.5 hPa WSW 6.4 km/h 17.7 km/h 54% 0 mm
10:54 0.7 °C -7.3 °C 1018.5 hPa WSW 17.7 km/h 20.9 km/h 55% 0 mm
10:59 0.1 °C -8.1 °C 1018.8 hPa WSW 12.9 km/h 27.4 km/h 54% 0 mm
11:04 0.1 °C -8.4 °C 1018.8 hPa WSW 16.1 km/h 27.4 km/h 53% 0 mm
11:09 0.1 °C -9.3 °C 1018.8 hPa WSW 14.5 km/h 25.7 km/h 49% 0 mm
11:19 -0.1 °C -9.3 °C 1019.2 hPa WSW 12.9 km/h 25.7 km/h 50% 0 mm
11:24 -0.2 °C -8.6 °C 1019.2 hPa WNW 20.9 km/h 27.4 km/h 53% 0 mm
11:29 0.1 °C -8.7 °C 1019.2 hPa West 11.3 km/h 27.4 km/h 52% 0 mm
11:34 -0.3 °C -8.5 °C 1019.2 hPa West 14.5 km/h 27.4 km/h 54% 0 mm
11:39 0.1 °C -7.9 °C 1019.2 hPa SSW 8 km/h 20.9 km/h 55% 0 mm
11:44 -0.3 °C -8.5 °C 1019.5 hPa SW 14.5 km/h 32.2 km/h 54% 0 mm
11:49 -0.5 °C -8.4 °C 1019.5 hPa WSW 25.7 km/h 29 km/h 55% 0 mm
11:54 -0.7 °C -8.4 °C 1019.5 hPa WSW 8 km/h 35.4 km/h 56% 0 mm
11:59 -0.7 °C -8.6 °C 1019.5 hPa SW 17.7 km/h 32.2 km/h 55% 0 mm
12:04 -0.5 °C -8.4 °C 1019.5 hPa WSW 17.7 km/h 32.2 km/h 55% 0 mm
12:09 -0.5 °C -8.4 °C 1019.5 hPa WSW 17.7 km/h 32.2 km/h 55% 0 mm
12:14 -0.2 °C -7.9 °C 1019.5 hPa WSW 16.1 km/h 33.8 km/h 56% 0 mm
12:20 -0.2 °C -8.2 °C 1019.5 hPa WSW 16.1 km/h 33.8 km/h 55% 0 mm
12:25 -0.6 °C -7.6 °C 1019.5 hPa South 22.5 km/h 30.6 km/h 59% 0 mm
12:30 -0.4 °C -7.7 °C 1019.5 hPa SW 22.5 km/h 30.6 km/h 58% 0 mm
12:34 -0.6 °C -8.1 °C 1019.5 hPa WSW 16.1 km/h 30.6 km/h 57% 0 mm
12:39 -0.6 °C -7.8 °C 1019.5 hPa SW 20.9 km/h 32.2 km/h 58% 0 mm
12:44 -0.5 °C -8 °C 1019.5 hPa SSW 16.1 km/h 32.2 km/h 57% 0 mm
12:49 -0.2 °C -7.7 °C 1019.2 hPa WSW 11.3 km/h 35.4 km/h 57% 0 mm
12:54 0.3 °C -7.7 °C 1019.5 hPa WSW 9.7 km/h 32.2 km/h 55% 0 mm
12:59 0.3 °C -7.3 °C 1019.2 hPa WSW 20.9 km/h 29 km/h 57% 0 mm
13:04 0.7 °C -7.1 °C 1019.2 hPa WSW 14.5 km/h 29 km/h 56% 0 mm
13:09 1.1 °C -7.2 °C 1019.2 hPa WSW 14.5 km/h 32.2 km/h 54% 0 mm
13:14 0.6 °C -6.6 °C 1019.2 hPa WSW 14.5 km/h 32.2 km/h 59% 0 mm
13:19 0.1 °C -7.4 °C 1019.2 hPa SSW 16.1 km/h 33.8 km/h 57% 0 mm
13:25 0.2 °C -7.1 °C 1019.2 hPa SW 17.7 km/h 33.8 km/h 58% 0 mm
13:30 0.5 °C -6.8 °C 1019.2 hPa SW 16.1 km/h 27.4 km/h 58% 0 mm
13:34 0 °C -6.8 °C 1019.2 hPa SW 16.1 km/h 30.6 km/h 60% 0 mm
13:39 -0.1 °C -6.7 °C 1019.2 hPa WSW 17.7 km/h 30.6 km/h 61% 0 mm
13:44 0.3 °C -6.1 °C 1019.2 hPa West 9.7 km/h 30.6 km/h 62% 0 mm
13:49 0.7 °C -5.9 °C 1019.2 hPa WSW 9.7 km/h 29 km/h 61% 0 mm
13:54 0.7 °C -6.2 °C 1019.2 hPa West 8 km/h 27.4 km/h 60% 0 mm
13:59 0.3 °C -5.9 °C 1019.5 hPa SW 22.5 km/h 32.2 km/h 63% 0 mm
14:04 -0.2 °C -6.6 °C 1019.5 hPa WSW 22.5 km/h 32.2 km/h 62% 0 mm
14:09 -0.5 °C -6.9 °C 1019.5 hPa West 11.3 km/h 32.2 km/h 62% 0 mm
14:14 -0.4 °C -6.4 °C 1019.5 hPa WSW 17.7 km/h 32.2 km/h 64% 0 mm
14:19 -0.4 °C -6.2 °C 1019.5 hPa WSW 16.1 km/h 24.1 km/h 65% 0 mm
14:24 -0.2 °C -6.2 °C 1019.5 hPa West 12.9 km/h 29 km/h 64% 0 mm
14:29 -0.3 °C -6.3 °C 1019.5 hPa WNW 27.4 km/h 32.2 km/h 64% 0 mm
14:34 -0.4 °C -6.2 °C 1019.5 hPa WSW 17.7 km/h 27.4 km/h 65% 0 mm
14:39 -0.6 °C -6.1 °C 1019.5 hPa WSW 14.5 km/h 27.4 km/h 66% 0 mm
14:44 -0.4 °C -6 °C 1019.5 hPa WSW 16.1 km/h 37 km/h 66% 0 mm
14:49 -0.3 °C -6.3 °C 1019.9 hPa WSW 17.7 km/h 41.8 km/h 64% 0 mm
14:54 -0.3 °C -6.3 °C 1019.5 hPa WSW 16.1 km/h 41.8 km/h 64% 0 mm
14:59 -0.4 °C -6.2 °C 1019.5 hPa WSW 16.1 km/h 33.8 km/h 65% 0 mm
15:04 -0.4 °C -5.9 °C 1019.5 hPa WSW 14.5 km/h 30.6 km/h 66% 0 mm
15:10 -0.5 °C -6.1 °C 1019.5 hPa SW 19.3 km/h 32.2 km/h 66% 0 mm
15:14 -0.2 °C -5.6 °C 1019.5 hPa SSW 8 km/h 27.4 km/h 67% 0 mm
15:19 -0.1 °C -6.3 °C 1019.5 hPa SW 9.7 km/h 32.2 km/h 63% 0 mm
15:24 -0.3 °C -6.3 °C 1019.5 hPa SSW 25.7 km/h 33.8 km/h 64% 0 mm
15:29 -0.3 °C -6.3 °C 1019.5 hPa South 16.1 km/h 29 km/h 64% 0 mm
15:34 0.2 °C -5.8 °C 1019.5 hPa SSE 20.9 km/h 29 km/h 64% 0 mm
15:39 0.2 °C -5.8 °C 1019.2 hPa SW 12.9 km/h 30.6 km/h 64% 0 mm
15:44 0.2 °C -5.8 °C 1019.2 hPa SW 16.1 km/h 29 km/h 64% 0 mm
15:49 -0.1 °C -6.1 °C 1019.2 hPa WSW 17.7 km/h 35.4 km/h 64% 0 mm
15:54 -0.2 °C -5.9 °C 1019.2 hPa WSW 19.3 km/h 35.4 km/h 65% 0 mm
15:59 -0.1 °C -5.7 °C 1019.2 hPa WSW 17.7 km/h 35.4 km/h 66% 0 mm
16:04 -0.1 °C -5.9 °C 1019.2 hPa WSW 17.7 km/h 35.4 km/h 65% 0 mm
16:09 0.1 °C -5.6 °C 1019.2 hPa SW 12.9 km/h 27.4 km/h 66% 0 mm
16:14 0.2 °C -5.2 °C 1019.2 hPa WNW 8 km/h 20.9 km/h 67% 0 mm
16:19 0.1 °C -5.6 °C 1019.2 hPa SSW 16.1 km/h 32.2 km/h 66% 0 mm
16:24 0 °C -5.6 °C 1018.8 hPa SW 14.5 km/h 32.2 km/h 66% 0 mm
16:29 0.1 °C -5.3 °C 1018.8 hPa SW 14.5 km/h 29 km/h 67% 0 mm
16:34 0.2 °C -5.2 °C 1018.8 hPa SW 12.9 km/h 27.4 km/h 67% 0 mm
16:39 0 °C -5.2 °C 1018.8 hPa West 8 km/h 27.4 km/h 68% 0 mm
16:44 0.1 °C -4.9 °C 1018.8 hPa West 14.5 km/h 20.9 km/h 69% 0 mm
16:49 0 °C -5 °C 1019.2 hPa SW 22.5 km/h 24.1 km/h 69% 0 mm
16:54 -0.2 °C -5.1 °C 1019.2 hPa SW 12.9 km/h 25.7 km/h 70% 0 mm
16:59 -0.3 °C -4.9 °C 1018.8 hPa SW 14.5 km/h 29 km/h 71% 0 mm
17:04 -0.3 °C -4.9 °C 1018.8 hPa SW 12.9 km/h 24.1 km/h 71% 0 mm
17:09 -0.3 °C -4.7 °C 1018.8 hPa WSW 11.3 km/h 20.9 km/h 72% 0 mm
17:14 -0.3 °C -4.8 °C 1018.8 hPa WSW 9.7 km/h 22.5 km/h 72% 0 mm
17:19 -0.4 °C -4.9 °C 1018.8 hPa WSW 8 km/h 24.1 km/h 72% 0 mm
17:24 -0.4 °C -4.7 °C 1018.8 hPa SW 12.9 km/h 24.1 km/h 73% 0 mm
17:29 -0.5 °C -4.7 °C 1018.8 hPa SW 12.9 km/h 25.7 km/h 73% 0 mm
17:34 -0.6 °C -4.6 °C 1018.8 hPa SW 12.9 km/h 25.7 km/h 74% 0 mm
17:39 -0.6 °C -4.7 °C 1018.8 hPa SSW 9.7 km/h 16.1 km/h 74% 0 mm
17:44 -0.7 °C -4.7 °C 1018.8 hPa WSW 11.3 km/h 17.7 km/h 74% 0 mm
17:49 -0.7 °C -4.6 °C 1018.8 hPa SW 12.9 km/h 20.9 km/h 75% 0 mm
17:54 -0.7 °C -4.6 °C 1019.2 hPa SW 12.9 km/h 20.9 km/h 75% 0 mm
17:59 -0.7 °C -4.6 °C 1019.2 hPa SW 12.9 km/h 20.9 km/h 75% 0 mm
18:04 -0.7 °C -4.6 °C 1019.2 hPa WSW 9.7 km/h 20.9 km/h 75% 0 mm
18:09 -0.8 °C -4.5 °C 1019.2 hPa WSW 8 km/h 22.5 km/h 76% 0 mm
18:14 -0.8 °C -4.5 °C 1019.2 hPa SSW 4.8 km/h 16.1 km/h 76% 0 mm
18:19 -0.8 °C -4.3 °C 1019.2 hPa SW 12.9 km/h 17.7 km/h 77% 0 mm
18:24 -0.8 °C -4.3 °C 1019.2 hPa SW 14.5 km/h 16.1 km/h 77% 0 mm
18:34 -0.7 °C -4.3 °C 1019.2 hPa SW 8 km/h 19.3 km/h 77% 0 mm
18:39 -0.7 °C -4.3 °C 1019.2 hPa SW 8 km/h 16.1 km/h 77% 0 mm
18:44 -0.7 °C -4.1 °C 1019.2 hPa SW 8 km/h 16.1 km/h 78% 0 mm
18:49 -0.7 °C -4.1 °C 1019.2 hPa SSW 6.4 km/h 14.5 km/h 78% 0 mm
18:54 -0.8 °C -4.1 °C 1018.8 hPa SSW 11.3 km/h 11.3 km/h 78% 0 mm
18:59 -0.7 °C -3.8 °C 1018.8 hPa South 6.4 km/h 12.9 km/h 79% 0 mm
19:04 -0.7 °C -3.9 °C 1019.2 hPa SSW 8 km/h 11.3 km/h 79% 0 mm
19:09 -0.7 °C -3.9 °C 1019.2 hPa SSW 4.8 km/h 11.3 km/h 79% 0 mm
19:14 -0.7 °C -3.9 °C 1019.2 hPa SSW 1.6 km/h 11.3 km/h 79% 0 mm
19:19 -0.7 °C -4.1 °C 1019.2 hPa SSW 1.6 km/h 11.3 km/h 78% 0 mm
19:24 -0.7 °C -4.1 °C 1019.2 hPa SSW 4.8 km/h 9.7 km/h 78% 0 mm
19:29 -0.7 °C -4.3 °C 1018.8 hPa South 4.8 km/h 11.3 km/h 77% 0 mm
19:34 -0.8 °C -4.7 °C 1018.8 hPa South 8 km/h 14.5 km/h 75% 0 mm
19:39 -0.8 °C -4.8 °C 1018.8 hPa South 6.4 km/h 14.5 km/h 74% 0 mm
19:44 -0.8 °C -5 °C 1018.5 hPa South 8 km/h 11.3 km/h 73% 0 mm
19:49 -0.9 °C -5.1 °C 1018.8 hPa South 6.4 km/h 11.3 km/h 73% 0 mm
19:54 -0.7 °C -5.3 °C 1018.8 hPa SSW 4.8 km/h 14.5 km/h 71% 0 mm
19:59 -0.4 °C -5.6 °C 1018.8 hPa South 6.4 km/h 12.9 km/h 68% 0 mm
20:04 -0.2 °C -5.6 °C 1018.8 hPa SSW 8 km/h 19.3 km/h 67% 0 mm
20:09 0 °C -5.8 °C 1018.8 hPa SSW 12.9 km/h 16.1 km/h 65% 0 mm
20:14 0.2 °C -6 °C 1018.8 hPa South 9.7 km/h 19.3 km/h 63% 0 mm
20:19 0.4 °C -6.1 °C 1018.5 hPa SSW 6.4 km/h 20.9 km/h 62% 0 mm
20:24 0.5 °C -6.2 °C 1018.8 hPa South 9.7 km/h 19.3 km/h 61% 0 mm
20:29 0.6 °C -6.3 °C 1018.8 hPa SSW 9.7 km/h 20.9 km/h 60% 0 mm
20:34 0.6 °C -6.3 °C 1018.8 hPa SSW 9.7 km/h 20.9 km/h 60% 0 mm
20:39 0.6 °C -6.5 °C 1018.8 hPa SSW 8 km/h 19.3 km/h 59% 0 mm
20:44 0.7 °C -6.4 °C 1019.2 hPa SSW 9.7 km/h 19.3 km/h 59% 0 mm
20:49 0.7 °C -6.4 °C 1019.2 hPa SSW 9.7 km/h 19.3 km/h 59% 0 mm
20:54 0.7 °C -6.6 °C 1019.2 hPa SSW 9.7 km/h 19.3 km/h 58% 0 mm
20:59 0.7 °C -6.4 °C 1019.2 hPa SSW 9.7 km/h 20.9 km/h 59% 0 mm
21:04 0.8 °C -6.6 °C 1019.2 hPa West 11.3 km/h 16.1 km/h 58% 0 mm
21:09 0.8 °C -6.5 °C 1019.2 hPa South 9.7 km/h 24.1 km/h 58% 0 mm
21:14 0.8 °C -6.5 °C 1019.5 hPa South 14.5 km/h 19.3 km/h 58% 0 mm
21:19 0.8 °C -6.3 °C 1019.5 hPa WSW 9.7 km/h 19.3 km/h 59% 0 mm
21:24 0.8 °C -6.3 °C 1019.5 hPa SSW 11.3 km/h 17.7 km/h 59% 0 mm
21:29 0.8 °C -6.3 °C 1019.5 hPa SSW 9.7 km/h 25.7 km/h 59% 0 mm
21:34 0.8 °C -6.3 °C 1019.5 hPa SSW 8 km/h 25.7 km/h 59% 0 mm
21:39 0.8 °C -6.3 °C 1019.5 hPa SSW 8 km/h 17.7 km/h 59% 0 mm
21:44 0.8 °C -6.3 °C 1019.5 hPa SSW 8 km/h 17.7 km/h 59% 0 mm
21:49 0.7 °C -6.4 °C 1019.5 hPa SW 16.1 km/h 17.7 km/h 59% 0 mm
21:54 0.8 °C -6.3 °C 1019.5 hPa SSW 14.5 km/h 19.3 km/h 59% 0 mm
21:59 0.8 °C -6.3 °C 1019.5 hPa SSW 8 km/h 19.3 km/h 59% 0 mm
22:04 0.8 °C -6.3 °C 1019.5 hPa SSW 8 km/h 16.1 km/h 59% 0 mm
22:09 0.8 °C -6.3 °C 1019.5 hPa South 11.3 km/h 17.7 km/h 59% 0 mm
22:14 0.9 °C -6.4 °C 1019.5 hPa WSW 11.3 km/h 22.5 km/h 58% 0 mm
22:19 0.9 °C -6.4 °C 1019.5 hPa SW 6.4 km/h 14.5 km/h 58% 0 mm
22:24 1.1 °C -6.3 °C 1019.9 hPa SW 12.9 km/h 20.9 km/h 58% 0 mm
22:29 1.1 °C -6.5 °C 1019.9 hPa SW 9.7 km/h 20.9 km/h 57% 0 mm
22:34 1.2 °C -6.4 °C 1019.5 hPa SW 9.7 km/h 20.9 km/h 57% 0 mm
22:39 1.3 °C -6.3 °C 1019.5 hPa WSW 6.4 km/h 17.7 km/h 57% 0 mm
22:44 1.2 °C -6.4 °C 1019.5 hPa SSW 8 km/h 17.7 km/h 57% 0 mm
22:49 1.3 °C -6.3 °C 1019.5 hPa WSW 9.7 km/h 16.1 km/h 57% 0 mm
22:54 1.3 °C -6.3 °C 1019.9 hPa SW 9.7 km/h 19.3 km/h 57% 0 mm
22:59 1.4 °C -6.2 °C 1019.9 hPa SSW 8 km/h 19.3 km/h 57% 0 mm
23:04 1.6 °C -6.1 °C 1019.9 hPa SSW 8 km/h 17.7 km/h 57% 0 mm
23:09 1.7 °C -6.1 °C 1019.9 hPa SSW 8 km/h 17.7 km/h 56% 0 mm
23:14 1.9 °C -6 °C 1019.9 hPa SSW 9.7 km/h 16.1 km/h 56% 0 mm
23:19 2 °C -6.1 °C 1019.9 hPa WSW 8 km/h 14.5 km/h 55% 0 mm
23:24 2 °C -6.1 °C 1019.5 hPa SSW 8 km/h 16.1 km/h 55% 0 mm
23:29 2 °C -6.1 °C 1019.9 hPa SSW 8 km/h 20.9 km/h 55% 0 mm
23:34 2.2 °C -6.2 °C 1019.9 hPa SSW 11.3 km/h 22.5 km/h 54% 0 mm
23:39 2.2 °C -6.2 °C 1019.9 hPa SSW 11.3 km/h 25.7 km/h 54% 0 mm
23:44 2.1 °C -6.3 °C 1019.9 hPa WSW 11.3 km/h 19.3 km/h 54% 0 mm
23:49 2.1 °C -6.1 °C 1019.9 hPa WSW 4.8 km/h 17.7 km/h 55% 0 mm
23:54 2 °C -6.3 °C 1019.9 hPa SSW 9.7 km/h 19.3 km/h 54% 0 mm
23:59 2.1 °C -6.3 °C 1019.9 hPa SSW 9.7 km/h 19.3 km/h 54% 0 mm
Buffalo, New York, USA
Compliments of Weather Underground - 2.5 mb